Home > Weather > Sankt Augustin > Past weeks

Flag for Germany Weather for the Past 2 Weeks in Sankt Augustin, North Rhine-Westphalia, Germany

Now
39 °F

Partly sunny.


Feels Like: 34 °F
Forecast: 32 / 37 °F
Wind: 8 mph from West

Location: Koeln / Bonn

Current Time: Feb 14, 2016 at 4:01:48 PM

Latest Report: Feb 14, 2016 at 3:20 PM


Visibility: N/A

Pressure: 29.24 "Hg

Humidity: 87%

Dew point: 36 °F

Location of Sankt AugustinLocation

Historic Weather in Sankt Augustin — Graph

°F

Sankt Augustin Temperature Yesterday

Maximum temperature yesterday: 39 °F (at 12:50 PM)
Minimum temperature yesterday: 27 °F (at 4:20 AM)
Average temperature yesterday: 34 °F

High & Low Weather Summary for the Past Weeks

 TemperatureHumidityPressure
High54 °F (Feb 1, 12:20 AM)100% (Jan 30, 6:20 PM)30.30 "Hg (Jan 30, 6:20 PM)
Low27 °F (Feb 13, 4:20 AM)50% (Feb 8, 3:50 PM)28.88 "Hg (Feb 9, 3:20 PM)
Average43 °F84%29.71 "Hg
* Reported Jan 30 2:20 PM — Feb 14 2:50 PM, Sankt Augustin, Weather by CustomWeather, © 2016

Note: Actual official high and low records may vary slightly from our data, if they occured in-between our weather recording intervals... More about our weather records

Advertising

Sankt Augustin Weather History for the Previous 24 Hours

 ConditionsComfort  
Time TempWeatherWind HumidityBarometerVisibility
2:50 PM
Sun, Feb 14
39 °FLight rain. Partly sunny.7 mph87%29.24 "HgN/A
2:20 PM39 °FLight rain. Partly sunny.8 mph87%29.24 "HgN/A
1:50 PM39 °FPartly sunny.8 mph87%29.21 "HgN/A
1:20 PM39 °FPartly sunny.9 mph93%29.21 "HgN/A
12:50 PM39 °FPartly sunny.12 mph93%29.18 "HgN/A
12:20 PM39 °FPartly sunny.8 mph93%29.18 "HgN/A
11:50 AM39 °FDrizzle. Partly sunny.12 mph93%29.15 "HgN/A
11:20 AM39 °FLight rain. Partly sunny.7 mph100%29.15 "HgN/A
10:50 AM37 °FLight rain. Partly sunny.6 mph100%29.15 "Hg5 mi
10:20 AM37 °FDrizzle. Partly sunny.6 mph100%29.15 "Hg6 mi
9:50 AM37 °FLight rain. Partly sunny.6 mph100%29.15 "HgN/A
9:20 AM37 °FLight rain. Broken clouds.5 mph100%29.12 "HgN/A
8:20 AM37 °FLight rain. Partly sunny.7 mph100%29.09 "HgN/A
7:50 AM37 °FLight rain. Partly sunny.8 mph100%29.09 "HgN/A
7:20 AM37 °FLight rain. Partly cloudy.8 mph100%29.06 "HgN/A
6:50 AM39 °FRain. Mostly cloudy.9 mph100%29.06 "HgN/A
6:20 AM39 °FLight rain. Mostly cloudy.8 mph100%29.06 "HgN/A
5:50 AM39 °FLight rain. Mostly cloudy.8 mph100%29.03 "HgN/A
5:20 AM39 °FLight rain. Partly cloudy.5 mph100%29.03 "HgN/A
4:50 AM37 °FLight rain. Low clouds.3 mph100%29.03 "HgN/A
4:20 AM37 °FLight rain. Partly cloudy.2 mph100%29.03 "HgN/A
3:50 AM37 °FLight rain. Overcast.3 mph100%29.03 "HgN/A
3:20 AM37 °FLight rain. Mostly cloudy.1 mph100%29.00 "HgN/A
2:20 AM37 °FLight rain. Passing clouds.2 mph100%29.00 "HgN/A
1:50 AM37 °FLight rain. Mostly cloudy.3 mph100%29.00 "HgN/A
1:20 AM37 °FLight rain. Overcast.5 mph100%29.00 "HgN/A
12:50 AM37 °FRain. Passing clouds.3 mph100%29.00 "HgN/A
12:20 AM37 °FLight rain. Mostly cloudy.5 mph100%29.00 "HgN/A
11:50 PM
Sat, Feb 13
37 °FLight rain. Overcast.5 mph100%29.00 "HgN/A
11:20 PM37 °FLight rain. Mostly cloudy.5 mph100%29.00 "HgN/A
10:50 PM37 °FLight rain. Mostly cloudy.6 mph100%29.00 "HgN/A
9:50 PM37 °FLight rain. Mostly cloudy.6 mph100%29.00 "HgN/A
9:20 PM37 °FLight rain. Partly cloudy.8 mph93%29.03 "HgN/A
8:50 PM37 °FLight rain. Mostly cloudy.8 mph93%29.03 "HgN/A
8:20 PM37 °FLight rain. Mostly cloudy.9 mph93%29.03 "HgN/A
7:50 PM36 °FLight rain. Mostly cloudy.9 mph100%29.03 "HgN/A
7:20 PM36 °FLight rain. Mostly cloudy.12 mph100%29.06 "HgN/A
6:50 PM36 °FLight rain. Mostly cloudy.13 mph100%29.06 "HgN/A
6:20 PM36 °FLight rain. Mostly cloudy.10 mph100%29.09 "HgN/A
5:50 PM36 °FLight rain. Mostly cloudy.9 mph100%29.09 "HgN/A
5:20 PM36 °FLight rain. More clouds than sun.9 mph100%29.09 "HgN/A
4:50 PM36 °FLight rain. More clouds than sun.8 mph100%29.12 "HgN/A
4:20 PM36 °FLight rain. More clouds than sun.9 mph100%29.12 "HgN/A
Weather by CustomWeather, © 2016

See weather overviewHow to use our weather pages